Regional Weather Roundup
Issued by NWS

Home | Current Version | Previous Version | Graphics & Text | Print | Product List | Glossary On
Versions: 1 2 3 4 5 6 7 8 9 10 11 12 13 14 15 16 17 18 19 20 21 22 23 24 25 26 27 28 29 30 31 32 33 34 35 36 37 38 39 40 41 42 43 44 45 46 47 48 49 50
188
ASUS43 KOAX 270710
RWRNE

WEATHER ROUNDUP FOR NEBRASKA
NATIONAL WEATHER SERVICE OMAHA NE
200 AM CDT FRI MAY 27 2016

NOTES: SATELLITE DATA IS BEING USED TO AUGMENT CLOUD COVER ABOVE
       12000 FEET.
       "FAIR" INDICATES FEW OR NO CLOUDS BELOW 12,000 FEET WITH NO
       SIGNIFICANT WEATHER AND/OR OBSTRUCTIONS TO VISIBILITY.

  * THESE STATIONS DO NOT REPORT WEATHER SUCH AS RAIN...SNOW OR FOG.

NEZ001>004-019>022-054>056-270800-
NEBRASKA PANHANDLE

CITY           SKY/WX    TMP DP  RH WIND       PRES   REMARKS
SCOTTSBLUFF    CLOUDY    53  42  66 N8        29.85R
ALLIANCE       CLOUDY    53  47  79 CALM      29.81F
CHADRON        CLOUDY    47  44  90 W3        29.85R
KIMBALL        CLOUDY    50  44  80 N12       29.86R
SIDNEY         CLOUDY    50  48  93 NW12      29.82R
$$

NEZ057>060-069>072-079>082-270800-
SOUTHWEST NEBRASKA

CITY           SKY/WX    TMP DP  RH WIND       PRES   REMARKS
NORTH PLATTE   CLOUDY    57  51  80 NE30G43   29.63F
IMPERIAL       PTCLDY    53  49  86 NE7       29.74R
LEXINGTON      CLOUDY    59  56  91 SE8       29.76R
MCCOOK         MOCLDY    54  52  93 SE10      29.76R
OGALLALA       CLOUDY    55  50  83 N10G16    29.73F
$$

NEZ005>010-023>029-035>040-094-270800-
NORTH CENTRAL NEBRASKA

CITY           SKY/WX    TMP DP  RH WIND       PRES   REMARKS
VALENTINE      LGT RAIN  56  51  84 NE17G25   29.81F
AINSWORTH      TSTM      55  53  90 NE9       29.83R
BROKEN BOW     CLOUDY    58  56  93 VRB5      29.70F
O`NEILL        MOCLDY    62  58  87 SE8       29.81F
ORD            CLOUDY    59  56  89 CALM      29.76F
THEDFORD       CLOUDY    58  54  86 NE9       29.82F
$$

NEZ041-046>049-061>064-073>077-083>087-270800-
SOUTH CENTRAL NEBRASKA

CITY           SKY/WX    TMP DP  RH WIND       PRES   REMARKS
GRAND ISLAND   LGT RAIN  59  55  87 E10       29.77F
AURORA         LGT RAIN  59  56  90 S8        29.78S
HASTINGS       CLOUDY    58  54  86 SE15      29.73F
HEBRON         LGT RAIN  60  59  97 SE20G28   29.76F
HOLDREGE       CLOUDY    58  55  91 SE13      29.74R
KEARNEY *      CLOUDY    57  54  88 SE21G28   29.75R
YORK           LGT RAIN  59  55  88 S12       29.77F
$$

NEZ011>018-030>034-042>045-270800-
NORTHEAST NEBRASKA

CITY           SKY/WX    TMP DP  RH WIND       PRES   REMARKS
NORFOLK        CLOUDY    60  55  83 SE7       29.78F
ALBION         CLOUDY    61  56  84 S10G18    29.80F
BLAIR          CLOUDY    62  59  89 S12       29.80R
FREMONT        CLOUDY    61  57  85 S12       29.80F
TEKAMAH        CLOUDY    64  57  78 SW13      29.79F
WAYNE          CLOUDY    60  57  90 SW5       29.81S
$$

NEZ050>053-065>068-078-088>093-270800-
SOUTHEAST NEBRASKA

CITY           SKY/WX    TMP DP  RH WIND       PRES   REMARKS
LINCOLN        CLOUDY    62  59  90 S12       29.81R
OMAHA EPPLEY   CLOUDY    64  59  83 S9        29.80R
BEATRICE       LGT RAIN  61  59  95 S14       29.85S
FALLS CITY     HVY RAIN  62  62 100 S8        29.85R FOG
NEBRASKA CITY  LGT RAIN  61  61 100 S18G25    29.80F
PLATTSMOUTH    MOCLDY    64  61  92 S14       29.82R
$$

NEZ044-045-051>053-067-270800-
OMAHA AREA

CITY           SKY/WX    TMP DP  RH WIND       PRES   REMARKS
OMAHA EPPLEY   CLOUDY    64  59  83 S9        29.80R
BLAIR          CLOUDY    62  59  89 S12       29.80R
FREMONT        CLOUDY    61  57  85 S12       29.80F
MILLARD        CLOUDY    63  59  86 S6        29.81R
OFFUTT AFB     CLOUDY    63  60  90 S7        29.80R
PLATTSMOUTH    MOCLDY    64  61  92 S14       29.82R
WAHOO          PTSUNNY   61  58  89 S12       29.81R
$$




USA.gov is the U.S. government's official web portal to all federal, state and local government web resources and services.